P/2011 CR42 ( Catalina )

Japanese version
Home page
Updated on May 7, 2015

---------------------------------------------------------------------

* Profile

Discovery Date February 10, 2011
Magnitude 17.6 mag
Discoverer A. Boattini (Catalina Sky Survey)

* Pictures

* Orbital Elements

Epoch 2013 Nov. 4.0 TT = JDT 2456600.5
T 2011 Nov. 29.40018 TT                                 MPC
q   2.5267789            (2000.0)            P               Q
n   0.14997164     Peri.  173.35654     -0.61333951     +0.77974444
a   3.5085685      Node    58.73399     -0.73124702     -0.50044184
e   0.2798263      Incl.    8.45989     -0.29848356     -0.37624005
P   6.57
From 116 observations 2011 Feb. 10-2013 Oct. 30, mean residual 0".5.

* Magnitudes Graph

        H = 15.0  G = 0.15

---------------------------------------------------------------------

The orbital elements are published on M.P.E.C. 2013-Y32.
The magnitudes graphs are made with Comet for Windows.

---------------------------------------------------------------------

Copyright(C) Seiichi Yoshida (comet@aerith.net). All rights reserved.